Content
SEND FEEDBACK

Daily
Averages
Monthly
Summary
United States of America

LAKE TAHOE, NEVADA


Home > North America > United States > Nevada
Elevation: 6241 feet     Latitude: 38 58N     Longitude: 119 57W

WEATHER
 
SELECT A DAY
Number of Records: 178,868;   Date Range: 1/1/95 - 12/26/14
 
SHARE

PRINT THIS DATA

[ ← Previous Day ]
WEATHER ALMANAC - FEBRUARY 17, 2013
[ Next Day → ]
[ °C ]   °F
Weather ElementAverageHighLow
Temperature34.3 °F50 °F (1:53 pm)21 °F (6:53 am)
Dewpoint15.7 °F23 °F (6:53 pm)7 °F (11:53 am)
Humidity52.1 %75 % (10:53 pm)19 % (11:53 am)
Barometer30.00 in30.06 in (7:53 am)29.94 in (1:53 pm)
Wind Speed1.6 mph8.1 mph (2:53 pm)
Weather ElementAverage
Visibility10 mi
Wind DirectionNE (45.9 °)

Weather ElementTotal
Precipitation---
Heating Degree Days29.5 (Base 65)
Averaged from 22 records on February 17, 2013
WEATHER CONDITIONS BREAKOUT
WIND DIRECTION BREAKOUT
WEATHER BY HOUR - FEBRUARY 17, 2013
[ °C ]   °F
Local TimeTemperatureDewpointHumidityBarometerVisibilityWind DirectionWind SpeedGust SpeedPrecipitationEventsConditions
1:53 AM26.1 °F16.0 °F66 %30.05 in10.0 miCalmClear
2:53 AM24.1 °F16.0 °F71 %30.01 in10.0 miSouth (190°)4.6 mphClear
3:53 AM23.0 °F15.1 °F72 %29.99 in10.0 miCalmClear
4:53 AM23.0 °F14.0 °F68 %30.00 in10.0 miCalmClear
5:53 AM21.9 °F12.9 °F68 %30.04 in10.0 miCalmClear
6:53 AM21.0 °F12.0 °F68 %30.05 in10.0 miSSW (200°)3.5 mphClear
7:53 AM24.1 °F14.0 °F65 %30.06 in10.0 miCalmClear
8:53 AM32.0 °F16.0 °F52 %30.03 in10.0 miSouth (180°)3.5 mphClear
9:53 AM42.1 °F18.0 °F38 %30.01 in10.0 miSouth (170°)3.5 mphClear
10:53 AM45.0 °F10.9 °F25 %30.00 in10.0 miCalmClear
11:53 AM48.0 °F7.0 °F19 %29.98 in10.0 miSW (220°)3.5 mphClear
12:53 PM48.9 °F10.0 °F21 %29.96 in10.0 miVariable4.6 mphClear
1:53 PM50.0 °F10.0 °F20 %29.94 in10.0 miCalmClear
2:53 PM48.9 °F14.0 °F25 %29.95 in10.0 miNNE (30°)8.1 mphClear
3:53 PM50.0 °F12.9 °F23 %29.95 in10.0 miNNE (20°)4.6 mphClear
4:53 PM42.1 °F19.9 °F41 %29.98 in10.0 miCalmClear
5:53 PM37.9 °F21.9 °F53 %30.00 in10.0 miCalmClear
6:53 PM34.0 °F23.0 °F64 %30.03 in10.0 miCalmClear
7:53 PM32.0 °F21.9 °F66 %30.03 in10.0 miCalmClear
9:53 PM28.0 °F19.9 °F72 %30.00 in10.0 miCalmClear
10:53 PM27.0 °F19.9 °F75 %30.00 in10.0 miCalmClear
11:53 PM26.1 °F19.0 °F75 %29.99 in10.0 miCalmClear
Hourly data recorded from KTVL, located miles away from Lake Tahoe, Nevada







STORIES FROM OUR PARTNERS